Location: Brahman Valley
(40.6513°N, 111.8855°W)
Time: 22:31:26
(UTC+00:00)

Vanguard 2 - Pass Details

Date: 13 May 2021
Orbit: 552 x 2937 km, 32.9° (Epoch: 14 June)

Event Time Altitude Azimuth Distance (km) Brightness Sun altitude
Rises 11:58:05 0° 220° (SW) 4,091 - -3.2°
Exits shadow 11:58:15 - 220° (SW) 4,047 10.6 -3.2°
Reaches altitude 10° 12:00:43 10° 212° (SSW) 3,406 10.3 -2.8°
Maximum altitude 12:08:53 37° 148° (SSE) 2,628 10.3 -1.4°
Drops below altitude 10° 12:21:19 10° 89° (E) 5,198 13.2 0.7°
Sets 12:26:25 0° 82° (E) 6,484 14.2 1.6°
